EA1AML-1 Vega de Espinareda ES current weather conditions

sailwx.info

Wind from 360

Air temperature 14.4° C
Dewpoint 14.4° C

Last reported at 2014-Jul-25 07:43 UTC.
Time now 2014-Jul-25 09:06 UTC

Location: N 42°43' W 006°39'.
View on Google Maps.

See reports from other nearby stations

  
Tides and Currents Weather Stations Pressure Air Temp Water Temp Dewpoint Dewpoint Depression Visibility Wind Speed Wind Dir Waves Ship Positions
date/time (UTC)wind fromknots sea level pressurealtimeterstation pressurevisibilityair tempwater tempwave heightnotes
2014-Jul-25 08:43 315 17.2
2014-Jul-25 08:33 360 16.7
2014-Jul-25 08:22 360 16.1
2014-Jul-25 07:52 045 15.0
2014-Jul-25 07:43 360 14.4
2014-Jul-25 07:33 360 0 gusting 1 14.4
2014-Jul-25 07:12 045 13.3
2014-Jul-25 06:53 045 12.8
2014-Jul-25 06:43 045 12.8
2014-Jul-25 06:23 045 12.2
2014-Jul-25 06:13 360 12.2
2014-Jul-25 06:03 045 12.2
2014-Jul-25 05:52 360 12.2
2014-Jul-25 05:32 090 12.2
2014-Jul-25 05:23 045 12.2
2014-Jul-25 05:13 045 12.2
2014-Jul-25 05:03 045 12.2
2014-Jul-25 04:53 090 12.2
2014-Jul-25 04:43 135 12.8
2014-Jul-25 04:23 180 12.8
2014-Jul-25 04:13 315 12.8
2014-Jul-25 03:53 135 12.8
2014-Jul-25 03:42 315 12.8
2014-Jul-25 03:23 135 13.3
2014-Jul-25 03:13 135 13.3
2014-Jul-25 03:03 180 13.3
2014-Jul-25 02:42 180 13.9
2014-Jul-25 02:33 180 13.9
2014-Jul-25 02:23 045 13.9
2014-Jul-25 02:13 180 13.9
2014-Jul-25 02:03 360 14.4
2014-Jul-25 01:53 180 0 gusting 2 14.4
2014-Jul-25 01:43 225 14.4
2014-Jul-25 01:23 180 15.0
2014-Jul-25 01:13 225 15.0
2014-Jul-25 00:53 180 15.0
2014-Jul-25 00:42 315 15.6
2014-Jul-25 00:33 180 15.6
2014-Jul-25 00:23 180 16.1
2014-Jul-25 00:13 180 2 gusting 2 16.1
2014-Jul-24 23:53 225 16.7
2014-Jul-24 23:32 360 16.7
2014-Jul-24 23:23 180 0 gusting 1 17.2
2014-Jul-24 23:13 360 17.8
2014-Jul-24 23:03 360 18.3
2014-Jul-24 22:53 045 0 gusting 2 18.3
2014-Jul-24 22:43 180 18.9
2014-Jul-24 22:23 045 0 gusting 2 19.4
2014-Jul-24 22:13 135 20.0
2014-Jul-24 22:02 045 1 gusting 2 20.0
2014-Jul-24 21:54 045 20.0
2014-Jul-24 21:33 090 20.0
2014-Jul-24 21:23 045 20.0
2014-Jul-24 21:14 315 20.0
2014-Jul-24 21:02 315 20.6
2014-Jul-24 20:53 315 20.6
2014-Jul-24 20:43 360 20.6
2014-Jul-24 20:32 360 1 gusting 2 20.6
2014-Jul-24 20:23 360 0 gusting 2 21.1
2014-Jul-24 20:13 360 0 gusting 3 21.1
2014-Jul-24 20:03 045 21.7
2014-Jul-24 19:53 360 0 gusting 6 22.2
2014-Jul-24 19:43 045 22.8
2014-Jul-24 19:33 045 22.8
2014-Jul-24 19:23 180 1 gusting 8 23.3
2014-Jul-24 19:12 112 3 gusting 10 23.3
2014-Jul-24 19:03 090 1 gusting 6 24.4
2014-Jul-24 18:53 135 2 gusting 9 24.4
2014-Jul-24 18:43 135 5 gusting 10 25.0
2014-Jul-24 18:34 135 3 gusting 7 25.0
2014-Jul-24 18:22 180 2 gusting 9 25.0
2014-Jul-24 18:13 135 5 gusting 9 25.0
2014-Jul-24 17:53 180 3 gusting 12 25.0
2014-Jul-24 17:42 135 5 gusting 12 25.0
2014-Jul-24 17:12 135 6 gusting 13 25.6
2014-Jul-24 17:03 158 5 gusting 17 25.6
2014-Jul-24 16:53 158 6 gusting 15 26.1
2014-Jul-24 16:43 090 5 gusting 16 26.7
2014-Jul-24 16:33 180 6 gusting 12 26.7
2014-Jul-24 16:13 045 4 gusting 12 26.1
2014-Jul-24 16:04 135 6 gusting 13 25.6
2014-Jul-24 15:53 225 5 gusting 10 26.1
2014-Jul-24 15:43 135 4 gusting 11 27.2
2014-Jul-24 15:33 090 6 gusting 12 28.3
2014-Jul-24 15:13 135 3 gusting 8 29.4
2014-Jul-24 15:03 135 2 gusting 5 29.4
2014-Jul-24 14:53 090 1 gusting 6 30.0
2014-Jul-24 14:42 360 3 gusting 6 29.4
2014-Jul-24 14:32 292 2 gusting 5 29.4
2014-Jul-24 14:22 360 2 gusting 6 28.9
2014-Jul-24 14:03 315 2 gusting 10 28.9
2014-Jul-24 13:54 315 3 gusting 6 28.9
2014-Jul-24 13:43 360 3 gusting 9 28.3
2014-Jul-24 13:33 360 6 gusting 9 28.3
2014-Jul-24 13:23 315 4 gusting 7 28.3
2014-Jul-24 13:12 270 1 gusting 6 27.8
2014-Jul-24 13:03 360 4 gusting 7 27.8
2014-Jul-24 12:53 360 0 gusting 6 27.2
2014-Jul-24 12:43 360 2 gusting 6 27.2
2014-Jul-24 12:32 315 2 gusting 8 26.7
2014-Jul-24 12:22 315 2 gusting 7 26.7
2014-Jul-24 12:12 360 1 gusting 5 26.1
2014-Jul-24 12:03 045 2 gusting 6 25.6
2014-Jul-24 11:53 360 2 gusting 8 25.6
2014-Jul-24 11:13 360 3 gusting 6 24.4
2014-Jul-24 11:04 315 0 gusting 7 23.9
2014-Jul-24 10:53 180 0 gusting 3 23.9
2014-Jul-24 10:43 315 0 gusting 4 23.3
2014-Jul-24 10:33 360 22.8
2014-Jul-24 10:23 315 1 gusting 3 23.3
2014-Jul-24 09:53 315 1 gusting 5 21.7
2014-Jul-24 09:33 045 1 gusting 5 20.6
2014-Jul-24 09:24 360 1 gusting 3 20.6
2014-Jul-24 09:12 360 20.6
2014-Jul-24 08:53 360 20.0
2014-Jul-24 08:43 360 19.4
2014-Jul-24 08:33 360 18.9
2014-Jul-24 08:23 360 17.8
2014-Jul-24 08:13 045 17.8
2014-Jul-24 07:53 360 16.7
2014-Jul-24 07:42 045 16.1
2014-Jul-24 07:23 360 15.6
2014-Jul-24 07:12 045 15.0
2014-Jul-24 06:52 090 14.4
2014-Jul-24 06:42 045 13.9
2014-Jul-24 06:22 360 13.3
2014-Jul-24 05:53 112 12.8
2014-Jul-24 04:42 045 13.3
2014-Jul-24 04:32 045 13.3
2014-Jul-24 04:13 315 13.9
2014-Jul-24 03:53 045 13.9
2014-Jul-24 03:42 045 14.4
2014-Jul-24 03:32 045 14.4
2014-Jul-24 03:23 045 14.4
2014-Jul-24 03:12 360 14.4
2014-Jul-24 03:03 315 14.4
2014-Jul-24 02:52 315 14.4
2014-Jul-24 02:43 360 14.4
2014-Jul-24 02:33 180 15.0
2014-Jul-24 02:23 180 15.0
2014-Jul-24 01:53 135 15.0
2014-Jul-24 01:43 180 15.6
2014-Jul-24 01:23 135 15.6
2014-Jul-24 01:13 202 2 gusting 3 15.6
2014-Jul-24 01:04 315 16.1
2014-Jul-24 00:42 360 16.7
2014-Jul-24 00:32 045 16.7
2014-Jul-24 00:13 225 0 gusting 1 17.2
2014-Jul-24 00:02 360 17.2
2014-Jul-23 23:54 045 17.8
2014-Jul-23 23:42 360 17.8
2014-Jul-23 23:33 360 18.3
2014-Jul-23 23:22 225 0 gusting 1 18.9
2014-Jul-23 23:13 360 18.9
2014-Jul-23 22:42 045 1 gusting 2 20.0
2014-Jul-23 22:32 225 20.0
2014-Jul-23 22:24 180 0 gusting 2 20.6
2014-Jul-23 22:13 045 21.1
2014-Jul-23 22:05 225 21.7
2014-Jul-23 21:53 270 21.7
2014-Jul-23 21:42 225 22.2
2014-Jul-23 21:33 112 22.8
2014-Jul-23 21:22 045 22.8
2014-Jul-23 21:13 090 22.8
2014-Jul-23 21:02 045 22.8
2014-Jul-23 20:52 090 23.3
2014-Jul-23 20:42 045 23.3
2014-Jul-23 20:33 360 23.9
2014-Jul-23 20:23 045 24.4
2014-Jul-23 20:13 090 0 gusting 5 24.4
2014-Jul-23 19:44 180 2 gusting 6 25.6
2014-Jul-23 19:14 180 2 gusting 7 26.1
2014-Jul-23 19:04 135 3 gusting 10 26.7
2014-Jul-23 18:54 135 5 gusting 9 26.7
2014-Jul-23 18:44 135 2 gusting 7 27.2
2014-Jul-23 18:34 135 2 gusting 10 27.8
2014-Jul-23 18:24 135 2 gusting 10 28.3
2014-Jul-23 18:13 135 0 gusting 8 28.3
2014-Jul-23 18:04 090 5 gusting 8 28.3
2014-Jul-23 17:54 158 4 gusting 11 28.3
2014-Jul-23 17:44 045 4 gusting 13 27.8
2014-Jul-23 17:34 045 5 gusting 13 27.8
2014-Jul-23 17:24 045 10 gusting 19 28.3
2014-Jul-23 17:13 090 4 gusting 12 29.4
2014-Jul-23 17:03 090 3 gusting 17 29.4
2014-Jul-23 16:53 045 8 gusting 18 29.4
2014-Jul-23 16:44 090 4 gusting 13 30.0
2014-Jul-23 16:33 090 7 gusting 16 30.0
2014-Jul-23 16:23 090 2 gusting 14 30.0
2014-Jul-23 16:15 090 7 gusting 13 30.0
2014-Jul-23 16:03 090 5 gusting 13 30.0
2014-Jul-23 15:54 090 4 gusting 11 30.6
2014-Jul-23 15:44 090 4 gusting 10 30.6
2014-Jul-23 15:34 090 4 gusting 9 30.6
2014-Jul-23 15:24 360 3 gusting 9 31.1
2014-Jul-23 15:13 360 6 gusting 10 31.7
2014-Jul-23 15:04 360 7 gusting 10 31.1
2014-Jul-23 14:55 360 5 gusting 13 30.6
2014-Jul-23 14:43 045 7 gusting 14 30.6
2014-Jul-23 14:33 045 1 gusting 13 30.6
2014-Jul-23 14:24 360 3 gusting 12 30.6
2014-Jul-23 13:53 315 2 gusting 20 30.0
2014-Jul-23 13:44 360 6 gusting 13 30.0
2014-Jul-23 13:35 315 2 gusting 10 29.4
2014-Jul-23 13:24 360 6 gusting 10 30.0
2014-Jul-23 13:04 315 3 gusting 7 30.0
2014-Jul-23 12:54 202 2 gusting 6 30.0
2014-Jul-23 12:44 270 1 gusting 5 30.0
2014-Jul-23 12:34 315 1 gusting 8 29.4
2014-Jul-23 12:24 360 5 gusting 12 28.9
2014-Jul-23 12:14 315 2 gusting 7 28.9
2014-Jul-23 11:43 360 2 gusting 6 28.3
2014-Jul-23 11:33 360 3 gusting 7 27.8
2014-Jul-23 10:44 315 0 gusting 5 26.7
2014-Jul-23 10:34 360 0 gusting 5 26.7
2014-Jul-23 10:13 180 25.6
2014-Jul-23 10:03 360 1 gusting 3 25.0
2014-Jul-23 09:33 360 1 gusting 2 23.9
2014-Jul-23 09:23 315 23.3
2014-Jul-23 09:14 360 0 gusting 1 22.2
2014-Jul-23 09:03 360 21.7